OneWeb SL0362

operational
NORAD ID: 49288 Int'l Des: 2021-090 Owner: ONEWEBN Country: UK Constellation: oneweb
LEOCIRCULARPOLARONEWEB_TYPE

Über OneWeb SL0362

Beschreibung wird geladen...

Live-Position

3D-Globus wird geladen...

Nächste Überflüge

Höhenverlauf

Altitude vs Time

uPlot chart will show altitude changes over time

Zweizeiliger Elementsatz

1 49288U 21090K 25257.81064487 .00000029 00000-0 40038-4 0 9992
2 49288 87.9286 359.7491 0001702 107.7055 252.4263 13.19725303190598
Epoch: 14. Sept. 2025 • Age: 21 hours

Aktueller Status

Höhe 1196.0 km
Geschwindigkeit 7.25 km/s
Subsatellitenpunkt -26.88°S, 61.99°W
Startdatum 14. Okt. 2021
Alter 3.9 years
Typ internet

Technische Details

Klassifizierung Payload
Masse 148.00 kg
Trockenmasse 140.00 kg
Gesamtmasse 148.00 kg
Länge 1.30 m
Durchmesser 1.00 m
Spannweite 5.00 m
Form Trapezoid+2 pan
Hersteller ONEWUS
Bus-Typ ARROW
Phasenstatus In Orbit
Besitzer/Staat ONEWEBN/UK

Große Konstellationen

Loading constellations...